| time (UTC) | temp F | wind direction | speed MPH | gust MPH | rain 1hr in | rain 24hr in | rain mn in | humidity % | barometer mb |
| 20260831220110 | 97 | 136 | 1.0 | 5.0 | 0.00 | 0.00 | 0.00 | 46 | 1016.7 |
| 20260831214603 | 97 | 150 | 1.0 | 6.0 | 0.00 | 0.00 | 0.00 | 47 | 1016.7 |
| 20260831213106 | 97 | 126 | 0.0 | 4.0 | 0.00 | 0.00 | 0.00 | 46 | 1016.7 |
| 20260831211608 | 97 | 154 | 3.0 | 7.0 | 0.00 | 0.00 | 0.00 | 46 | 1016.8 |
| 20260831210104 | 97 | 136 | 0.0 | 5.0 | 0.00 | 0.00 | 0.00 | 44 | 1017.0 |
| 20260831204603 | 97 | 150 | 1.0 | 6.0 | 0.00 | 0.00 | 0.00 | 42 | 1017.2 |
| 20260831203100 | 96 | 215 | 2.0 | 8.0 | 0.00 | 0.00 | 0.00 | 43 | 1017.3 |
| 20260831201556 | 96 | 163 | 2.0 | 9.0 | 0.00 | 0.00 | 0.00 | 40 | 1017.6 |
| 20260831200054 | 96 | 197 | 2.0 | 6.0 | 0.00 | 0.00 | 0.00 | 41 | 1017.7 |
| 20260831194635 | 96 | 186 | 2.0 | 7.0 | 0.00 | 0.00 | 0.00 | 45 | 1017.9 |
| 20260831193101 | 96 | 103 | 1.0 | 5.0 | 0.00 | 0.00 | 0.00 | 44 | 1018.1 |
| 20260831191605 | 96 | 68 | 1.0 | 4.0 | 0.00 | 0.00 | 0.00 | 47 | 1018.2 |
| 20260831190119 | 95 | 61 | 0.0 | 6.0 | 0.00 | 0.00 | 0.00 | 48 | 1018.3 |
| 20260831184634 | 94 | 0 | 1.0 | 8.0 | 0.00 | 0.00 | 0.00 | 47 | 1018.4 |
| 20260831183107 | 94 | 223 | 3.0 | 8.0 | 0.00 | 0.00 | 0.00 | 48 | 1018.6 |
| 20260831181603 | 94 | 130 | 2.0 | 7.0 | 0.00 | 0.00 | 0.00 | 50 | 1018.9 |
| 20260831174611 | 93 | 223 | 3.0 | 9.0 | 0.00 | 0.00 | 0.00 | 51 | 1019.4 |
| 20260831173107 | 93 | 232 | 3.0 | 9.0 | 0.00 | 0.00 | 0.00 | 52 | 1019.4 |
| 20260831171600 | 93 | 75 | 1.0 | 8.0 | 0.00 | 0.00 | 0.00 | 53 | 1019.5 |
| 20260831170057 | 93 | 205 | 2.0 | 4.0 | 0.00 | 0.00 | 0.00 | 53 | 1019.6 |
| 20260831164603 | 92 | 170 | 2.0 | 6.0 | 0.00 | 0.00 | 0.00 | 57 | 1019.8 |
| 20260831163101 | 90 | 225 | 3.0 | 9.0 | 0.00 | 0.00 | 0.00 | 58 | 1019.7 |
| 20260831161557 | 90 | 0 | 3.0 | 7.0 | 0.00 | 0.00 | 0.00 | 60 | 1019.8 |
| 20260831160103 | 88 | 211 | 1.0 | 9.0 | 0.00 | 0.00 | 0.00 | 64 | 1019.8 |
| 20260831154622 | 87 | 237 | 1.0 | 7.0 | 0.00 | 0.00 | 0.00 | 66 | 1019.8 |
| 20260831153059 | 86 | 0 | 0.0 | 8.0 | 0.00 | 0.00 | 0.00 | 68 | 1020.0 |
| 20260831151607 | 84 | 196 | 1.0 | 4.0 | 0.00 | 0.00 | 0.00 | 72 | 1020.0 |
| 20260831144625 | 82 | 149 | 1.0 | 5.0 | 0.00 | 0.00 | 0.00 | 76 | 1019.8 |
| 20260831143101 | 80 | 0 | 0.0 | 2.0 | 0.00 | 0.00 | 0.00 | 78 | 1019.7 |
| 20260831141604 | 78 | 0 | 0.0 | 2.0 | 0.00 | 0.00 | 0.00 | 81 | 1019.7 |
| 20260831140104 | 75 | 194 | 0.0 | 4.0 | 0.00 | 0.00 | 0.00 | 87 | 1019.6 |
| 20260831134603 | 73 | 0 | 0.0 | 0.0 | 0.00 | 0.00 | 0.00 | 93 | 1019.6 |
| 20260831133100 | 71 | 0 | 0.0 | 0.0 | 0.00 | 0.00 | 0.00 | 94 | 1019.4 |
| 20260831131604 | 69 | 0 | 0.0 | 0.0 | 0.00 | 0.00 | 0.00 | 94 | 1019.4 |
| 20260831130113 | 68 | 0 | 0.0 | 0.0 | 0.00 | 0.00 | 0.00 | 93 | 1019.3 |
| 20260831124559 | 67 | 0 | 0.0 | 0.0 | 0.00 | 0.00 | 0.00 | 93 | 1019.1 |
| 20260831123056 | 67 | 0 | 0.0 | 0.0 | 0.00 | 0.00 | 0.00 | 93 | 1019.0 |
| 20260831121553 | 67 | 0 | 0.0 | 0.0 | 0.00 | 0.00 | 0.00 | 92 | 1018.9 |
| 20260831120113 | 67 | 0 | 0.0 | 0.0 | 0.00 | 0.00 | 0.00 | 92 | 1018.7 |
| 20260831114605 | 67 | 0 | 0.0 | 0.0 | 0.00 | 0.00 | 0.00 | 92 | 1018.5 |
| 20260831113055 | 67 | 0 | 0.0 | 0.0 | 0.00 | 0.00 | 0.00 | 92 | 1018.4 |
| 20260831111614 | 67 | 0 | 0.0 | 0.0 | 0.00 | 0.00 | 0.00 | 92 | 1018.4 |
| 20260831110130 | 68 | 0 | 0.0 | 0.0 | 0.00 | 0.00 | 0.00 | 91 | 1018.3 |
| 20260831104558 | 68 | 0 | 0.0 | 0.0 | 0.00 | 0.00 | 0.00 | 91 | 1018.1 |
| 20260831103101 | 68 | 0 | 0.0 | 0.0 | 0.00 | 0.00 | 0.00 | 91 | 1018.0 |
| 20260831101555 | 68 | 0 | 0.0 | 0.0 | 0.00 | 0.00 | 0.00 | 91 | 1017.8 |
| 20260831100107 | 68 | 0 | 0.0 | 0.0 | 0.00 | 0.00 | 0.00 | 91 | 1017.7 |
| 20260831094558 | 68 | 0 | 0.0 | 0.0 | 0.00 | 0.00 | 0.00 | 91 | 1017.7 |
| 20260831093107 | 68 | 0 | 0.0 | 0.0 | 0.00 | 0.00 | 0.00 | 90 | 1017.7 |
| 20260831091604 | 68 | 0 | 0.0 | 0.0 | 0.00 | 0.00 | 0.00 | 90 | 1017.5 |
| 20260831090056 | 69 | 0 | 0.0 | 0.0 | 0.00 | 0.00 | 0.00 | 90 | 1017.5 |
| 20260831084606 | 69 | 0 | 0.0 | 0.0 | 0.00 | 0.00 | 0.00 | 89 | 1017.4 |
| 20260831083101 | 69 | 0 | 0.0 | 0.0 | 0.00 | 0.00 | 0.00 | 89 | 1017.6 |
| 20260831081632 | 69 | 0 | 0.0 | 0.0 | 0.00 | 0.00 | 0.00 | 88 | 1017.5 |
| 20260831080104 | 69 | 0 | 0.0 | 0.0 | 0.00 | 0.00 | 0.00 | 88 | 1017.4 |
| 20260831074603 | 70 | 0 | 0.0 | 0.0 | 0.00 | 0.00 | 0.00 | 88 | 1017.2 |
| 20260831073137 | 70 | 0 | 0.0 | 0.0 | 0.00 | 0.00 | 0.00 | 87 | 1017.3 |
| 20260831071553 | 70 | 0 | 0.0 | 0.0 | 0.00 | 0.00 | 0.00 | 87 | 1017.4 |
| 20260831070107 | 70 | 0 | 0.0 | 0.0 | 0.00 | 0.00 | 0.00 | 87 | 1017.4 |
| 20260831064609 | 70 | 0 | 0.0 | 0.0 | 0.00 | 0.00 | 0.00 | 87 | 1017.5 |
| 20260831063057 | 70 | 0 | 0.0 | 0.0 | 0.00 | 0.00 | 0.00 | 87 | 1017.5 |
| 20260831061604 | 70 | 0 | 0.0 | 0.0 | 0.00 | 0.00 | 0.00 | 86 | 1017.5 |
| 20260831060116 | 70 | 0 | 0.0 | 0.0 | 0.00 | 0.00 | 0.00 | 86 | 1017.6 |
| 20260831054607 | 70 | 0 | 0.0 | 0.0 | 0.00 | 0.00 | 0.00 | 86 | 1017.7 |
| 20260831053104 | 70 | 0 | 0.0 | 0.0 | 0.00 | 0.00 | 0.00 | 85 | 1017.6 |
| 20260831051606 | 71 | 0 | 0.0 | 0.0 | 0.00 | 0.00 | 0.00 | 85 | 1017.6 |
| 20260831050143 | 71 | 0 | 0.0 | 0.0 | 0.00 | 0.00 | 0.00 | 84 | 1017.5 |
| 20260831044605 | 71 | 0 | 0.0 | 0.0 | 0.00 | 0.00 | 0.00 | 84 | 1017.4 |
| 20260831043057 | 72 | 0 | 0.0 | 0.0 | 0.00 | 0.00 | 0.00 | 83 | 1017.4 |
| 20260831041609 | 72 | 0 | 0.0 | 0.0 | 0.00 | 0.00 | 0.00 | 83 | 1017.3 |
| 20260831040057 | 72 | 0 | 0.0 | 0.0 | 0.00 | 0.00 | 0.00 | 82 | 1017.3 |
| 20260831034605 | 72 | 0 | 0.0 | 0.0 | 0.00 | 0.00 | 0.00 | 81 | 1017.1 |
| 20260831033105 | 73 | 0 | 0.0 | 0.0 | 0.00 | 0.00 | 0.00 | 80 | 1017.1 |
| 20260831031606 | 73 | 0 | 0.0 | 0.0 | 0.00 | 0.00 | 0.00 | 80 | 1016.9 |
| 20260831030106 | 74 | 0 | 0.0 | 0.0 | 0.00 | 0.00 | 0.00 | 79 | 1017.1 |
| 20260831024603 | 74 | 0 | 0.0 | 0.0 | 0.00 | 0.00 | 0.00 | 78 | 1016.9 |
| 20260831023104 | 75 | 0 | 0.0 | 0.0 | 0.00 | 0.00 | 0.00 | 77 | 1016.8 |
| 20260831021559 | 76 | 0 | 0.0 | 0.0 | 0.00 | 0.00 | 0.00 | 74 | 1016.7 |
| 20260831020112 | 77 | 0 | 0.0 | 0.0 | 0.00 | 0.00 | 0.00 | 74 | 1016.4 |
| 20260831014604 | 78 | 0 | 0.0 | 0.0 | 0.00 | 0.00 | 0.00 | 72 | 1016.4 |
| 20260831013056 | 79 | 0 | 0.0 | 0.0 | 0.00 | 0.00 | 0.00 | 70 | 1016.2 |
| 20260831011601 | 81 | 0 | 0.0 | 0.0 | 0.00 | 0.00 | 0.00 | 66 | 1016.2 |
| 20260831010100 | 82 | 0 | 0.0 | 0.0 | 0.00 | 0.00 | 0.00 | 62 | 1016.1 |
| 20260831004605 | 84 | 0 | 0.0 | 0.0 | 0.00 | 0.00 | 0.00 | 61 | 1016.1 |
| 20260831003058 | 86 | 0 | 0.0 | 0.0 | 0.00 | 0.00 | 0.00 | 57 | 1015.9 |
| 20260831001601 | 87 | 0 | 0.0 | 0.0 | 0.00 | 0.00 | 0.00 | 55 | 1015.9 |
| 20260831000106 | 89 | 0 | 0.0 | 0.0 | 0.00 | 0.00 | 0.00 | 52 | 1015.9 |
| 20260830234606 | 91 | 0 | 0.0 | 0.0 | 0.00 | 0.00 | 0.00 | 48 | 1015.9 |
| 20260830233107 | 93 | 0 | 0.0 | 1.0 | 0.00 | 0.00 | 0.00 | 47 | 1016.0 |
| 20260830231601 | 94 | 0 | 0.0 | 3.0 | 0.00 | 0.00 | 0.00 | 45 | 1016.0 |
| 20260830230100 | 94 | 0 | 0.0 | 4.0 | 0.00 | 0.00 | 0.00 | 41 | 1015.9 |
| 20260830224605 | 95 | 0 | 0.0 | 5.0 | 0.00 | 0.00 | 0.00 | 40 | 1015.8 |
| 20260830223100 | 95 | 217 | 0.0 | 5.0 | 0.00 | 0.00 | 0.00 | 40 | 1015.9 |
| 20260830221608 | 95 | 0 | 1.0 | 6.0 | 0.00 | 0.00 | 0.00 | 39 | 1015.9 |